Location: Newark
(13.8117°N, 3.6025°W)
Time: 09:53:44
(UTC+00:00)

Explorer 11/Cluster Stage 4 - Pass Details

Date: 26 August 2019
Orbit: 467 x 1260 km, 28.8° (Epoch: 14 September)

Event Time Altitude Azimuth Distance (km) Brightness Sun altitude
Rises 05:20:02 0° 210° (SSW) 3,109 - -10.9°
Exits shadow 05:20:33 - 208° (SSW) 2,950 9.1 -10.8°
Reaches altitude 10° 05:22:44 10° 195° (SSW) 2,325 8.7 -10.3°
Maximum altitude 05:27:07 23° 144° (SE) 1,779 8.7 -9.2°
Drops below altitude 10° 05:32:15 10° 94° (E) 2,776 10.8 -8.0°
Sets 05:35:48 0° 81° (E) 3,872 12.8 -7.2°
